This demonstration page uses our WeatherBlox Daily Observations layout. Learn more.

Left ArrowRight Arrow

Hourly Observations for July 31, 2018

Temp ( °F °C ) Dew Point ( °F °C ) Humidity (%) Winds ( mph kmh ) Pressure ( in mb ) Visibility ( mi km ) Precip ( " mm )
12:53 am 00:53 Clear 64 17.8 41 5 43 43 S 12 19 29.96 1015 10 16 0.00 0.00
1:53 am 01:53 Clear 60 15.6 41 5 50 50 Calm 29.97 1015 10 16 0.00 0.00
2:53 am 02:53 Mostly Clear 65 18.3 41 5 42 42 N 7 11 30.00 1016 10 16 0.00 0.00
3:53 am 03:53 Clear 67 19.4 46 7.8 47 47 E 7 11 30.03 1017 10 16 0.00 0.00
4:53 am 04:53 Clear 64 17.8 47 8.3 54 54 E 7 11 30.04 1017 10 16 0.00 0.00
5:53 am 05:53 Sunny 61 16.1 48 8.9 63 63 NNW 3 6 30.06 1018 10 16 0.00 0.00
6:30 am 06:30 Mostly Sunny 61 16 48 9 63 63 NNW 7 11 30.06 1018 10 16 0.00 0.00
6:53 am 06:53 Sunny 63 17.2 50 10 63 63 N 8 13 30.08 1019 10 16 0.00 0.00
7:53 am 07:53 Sunny 68 20 55 12.8 63 63 NNE 12 19 30.09 1019 10 16 0.00 0.00
8:53 am 08:53 Sunny 71 21.7 55 12.8 57 57 N 9 15 30.12 1020 10 16 0.00 0.00
9:53 am 09:53 Sunny 73 22.8 56 13.3 55 55 NE 8 13 30.14 1021 10 16 0.00 0.00
10:53 am 10:53 Sunny 76 24.4 55 12.8 48 48 N 9 15 30.14 1021 10 16 0.00 0.00
11:53 am 11:53 Sunny 78 25.6 56 13.3 47 47 ENE 6 9 30.13 1020 10 16 0.00 0.00
12:53 pm 12:53 Sunny 80 26.7 55 12.8 42 42 VRB 7 11 30.11 1020 10 16 0.00 0.00
1:53 pm 13:53 Sunny 84 28.9 55 12.8 37 37 NE 14 22 30.11 1020 10 16 0.00 0.00
2:53 pm 14:53 Sunny 83 28.3 53 11.7 36 36 NE 9 15 30.09 1019 10 16 0.00 0.00
3:53 pm 15:53 Sunny 85 29.4 48 8.9 28 28 ESE 9 15 30.06 1018 10 16 0.00 0.00
4:53 pm 16:53 Sunny 84 28.9 50 10 31 31 E 13 20 30.05 1018 10 16 0.00 0.00
5:53 pm 17:53 Sunny 86 30 49 9.4 28 28 E 12 19 30.04 1017 10 16 0.00 0.00
6:53 pm 18:53 Sunny 84 28.9 49 9.4 30 30 ESE 8 13 30.02 1017 10 16 0.00 0.00
7:53 pm 19:53 Sunny 81 27.2 51 10.6 35 35 E 14 22 30.01 1016 10 16 0.00 0.00
8:53 pm 20:53 Sunny 77 25 51 10.6 40 40 E 14 22 30.03 1017 10 16 0.00 0.00
9:53 pm 21:53 Clear 74 23.3 51 10.6 45 45 E 13 20 30.03 1017 10 16 0.00 0.00
10:53 pm 22:53 Clear 70 21.1 51 10.6 51 51 E 14 22 30.03 1017 10 16 0.00 0.00
11:53 pm 23:53 Clear 68 20 51 10.6 55 55 E 13 20 30.02 1017 10 16 0.00 0.00

Powered by AerisWeather